Flag for Canada Weather past 2 weeks in North Bay, Ontario, Canada

Now
18 °F

Partly sunny.


Feels Like: 3 °F
Forecast: N/A
Wind: 15 mph from Southwest

Location: North Bay

Current Time: Mar 4, 2015 at 6:29:07 PM

Latest Report: Mar 4, 2015 at 5:00 PM


Visibility: 15 mi

Pressure: 29.83 "Hg

Humidity: 62%

Dew point: 7 °F

Location of North BayLocation

Historic Weather in North Bay — Graph

°F

North Bay temperature yesterday

Maximum temperature yesterday: 21 °F (at 12:00 PM)
Minimum temperature yesterday: 0 °F (at 6:00 AM)
Average temperature yesterday: 12 °F

Past Weeks' High & Low Weather Summary

 TemperatureHumidityPressure
High21 °F (Mar 1, 3:00 PM)100% (Feb 21, 10:00 PM)30.65 "Hg (Feb 21, 10:00 PM)
Low-27 °F (Feb 20, 7:00 AM)42% (Mar 2, 5:00 PM)29.47 "Hg (Feb 24, 8:00 PM)
Average3 °F77%30.09 "Hg
* Reported Feb 17 4:00 PM — Mar 4 4:00 PM, North Bay, Weather by CustomWeather, © 2015

Note: Actual official high and low records may vary slightly from our data, if they occured in-between our weather recording intervals... More about our weather records

Advertising

North Bay weather history for previous 24 hours

 ConditionsComfort  
Time TempWeatherWind HumidityBarometerVisibility
4:00 PM
Wed, Mar 4
19 °FPartly sunny.21 mph53%29.80 "Hg15 mi
3:00 PM19 °FPartly sunny.15 mph63%29.78 "Hg15 mi
2:00 PM19 °FPartly sunny.15 mph58%29.77 "Hg15 mi
1:00 PM19 °FPartly sunny.16 mph63%29.76 "Hg15 mi
12:00 PM19 °FPartly sunny.17 mph63%29.78 "Hg15 mi
11:00 AM18 °FPartly sunny.18 mph68%29.76 "Hg15 mi
10:00 AM16 °FBroken clouds.17 mph79%29.75 "Hg15 mi
9:00 AM16 °FScattered clouds.16 mph86%29.73 "Hg15 mi
8:00 AM16 °FLow level haze.16 mph86%29.70 "Hg15 mi
7:00 AM19 °FOvercast.17 mph93%29.67 "Hg15 mi
6:00 AM19 °FMostly cloudy.12 mph93%29.64 "Hg9 mi
5:57 AM19 °FMostly cloudy.10 mph93%29.64 "Hg9 mi
5:00 AM19 °FLow clouds.15 mph93%29.61 "Hg9 mi
4:47 AM18 °FMostly cloudy.13 mph100%29.60 "Hg8 mi
4:00 AM16 °FLight snow. Partly cloudy.10 mph100%29.59 "Hg9 mi
3:50 AM18 °FLight snow. Partly cloudy.12 mph93%29.59 "Hg9 mi
3:00 AM18 °FLight snow. Mostly cloudy.12 mph100%29.59 "Hg9 mi
2:57 AM18 °FLight snow. Mostly cloudy.12 mph100%29.59 "Hg9 mi
2:01 AM18 °FOvercast.10 mph100%29.57 "Hg9 mi
1:00 AM18 °FLight snow. Low clouds.14 mph100%29.55 "Hg9 mi
12:00 AM18 °FLight snow. Low clouds.10 mph93%29.54 "Hg9 mi
11:48 PM
Tue, Mar 3
18 °FLight snow. Low clouds.7 mph93%29.53 "Hg9 mi
11:00 PM16 °FLight snow. Overcast.5 mph100%29.52 "Hg9 mi
10:00 PM16 °FLight snow. Overcast.6 mph100%29.52 "Hg8 mi
9:00 PM18 °FLight snow. Mostly cloudy.6 mph93%29.52 "Hg3 mi
8:00 PM18 °FLight snow. Overcast.8 mph93%29.56 "Hg2 mi
7:00 PM18 °FLight snow. Overcast.7 mph93%29.58 "Hg1 mi
6:00 PM18 °FLight snow. Overcast.13 mph93%29.61 "Hg1 mi
Weather by CustomWeather, © 2015

See weather overviewHow to use our weather pages